SCP
1 1 1 1 1 1 1 1 1 1 1 0 0 0 0 0 0 0 0 0 0 0 0 0 0 0 0 0 0 0 0 0 0 0 0 0 0 0 0 0 0 0 0
1 1 1 1 1 1 1 1 1 1 1 1 0 0 0 0 0 1 1 0 0 0 0 0 0 0 0 0 0 0 0 0 0 0 0 0 0 0 0 0 0 0 0
1 1 1 1 1 1 1 1 1 1 1 1 1 0 0 0 1 1 1 1 1 1 1 1 1 1 1 0 0 0 0 0 0 0 0 0 0 0 0 0 0 0 0
2 2 2 1 1 1 1 1 1 1 1 1 1 1 1 1 1 1 1 1 1 1 1 1 1 1 1 1 1 1 1 1 1 1 1 1 0 0 0 0 0 0 0
2 2 2 2 1 1 1 1 1 1 1 1 0 1 1 1 1 1 1 1 1 1 1 1 1 1 1 1 1 1 1 1 1 1 1 1 1 1 0 0 0 0 0
2 2 2 2 1 1 1 1 1 1 1 1 0 1 1 1 1 1 1 1 1 1 1 1 1 1 1 1 1 1 1 1 1 1 1 1 1 1 1 1 1 1 1
2 2 1 1 1 2 2 1 1 1 1 1 1 1 1 1 1 1 1 1 1 1 1 2 2 2 1 1 1 1 1 1 1 1 1 1 1 1 1 1 1 1 1
2 2 2 2 2 2 2 2 1 1 1 1 1 1 1 1 1 1 1 1 1 1 1 2 2 3 2 2 1 1 1 2 2 2 2 2 1 1 1 1 1 1 1
2 2 2 2 2 2 2 2 1 1 1 1 1 1 1 1 1 1 1 1 1 1 1 2 2 3 3 2 2 2 2 2 2 2 2 2 1 1 1 1 1 1 1
2 2 2 2 3 3 2 1 1 1 1 1 1 1 1 1 1 1 1 1 1 2 2 1 1 2 2 3 3 3 2 2 2 2 2 2 2 2 1 1 1 1 1
3 2 2 2 3 3 2 2 2 2 1 1 1 1 1 1 1 1 1 1 1 1 1 1 1 1 2 2 3 3 2 2 2 2 2 2 2 2 2 1 1 1 1
2 2 2 2 3 3 3 3 3 3 2 2 2 2 2 2 2 2 1 1 1 1 1 1 1 1 2 2 2 2 2 2 1 1 2 2 2 2 2 2 2 1 1
2 2 2 3 3 3 3 4 4 4 4 3 3 3 2 3 2 2 2 1 1 1 1 1 1 1 2 2 2 2 2 1 1 1 1 1 1 1 2 2 2 1 1
2 2 3 4 4 4 4 4 4 4 4 3 3 3 3 3 3 2 2 2 1 1 1 1 1 1 2 2 2 2 2 1 1 1 1 1 1 1 1 1 1 1 1
2 3 3 4 4 4 4 4 4 4 4 3 2 2 3 3 3 3 2 2 1 1 1 1 1 1 1 2 2 2 2 2 1 0 0 0 0 1 1 1 1 1 1
3 4 4 4 4 4 4 4 4 4 3 3 2 2 2 3 3 2 2 2 2 1 1 1 1 1 1 1 1 2 2 2 1 0 0 0 0 0 0 0 1 1 0
5 6 5 4 4 4 4 4 4 3 3 2 2 2 2 2 2 2 2 2 1 1 1 1 1 1 1 1 1 1 1 1 1 0 0 0 0 0 0 0 0 0 0
7 7 7 6 5 5 4 4 3 2 2 2 2 2 2 2 2 2 2 1 1 1 1 1 2 1 1 1 1 1 1 1 1 0 0 0 0 0 0 0 0 0 0
8 8 7 7 5 4 4 3 2 2 2 2 2 2 2 2 2 2 1 1 1 1 1 1 2 1 1 1 1 1 1 1 0 0 0 0 0 0 0 0 0 0 0
6 7 7 6 5 3 3 2 2 2 2 2 2 1 1 1 1 1 1 1 1 1 1 1 1 1 1 1 1 1 1 1 0 0 0 0 0 0 0 0 0 0 0
5 5 5 5 4 3 2 2 2 2 2 2 1 1 1 1 1 1 1 1 1 1 1 1 1 1 1 1 1 1 1 1 1 1 1 1 0 0 0 0 0 0 0
4 4 4 4 3 3 2 2 2 2 2 2 1 1 1 1 1 0 0 0 1 1 1 1 1 1 1 1 1 0 1 1 1 1 1 1 1 1 1 1 0 0 0
4 4 4 4 3 2 1 1 1 2 2 2 1 1 1 1 1 0 0 0 0 0 1 1 1 1 1 1 1 0 1 1 1 1 1 1 1 1 1 1 0 0 0
5 4 4 4 3 2 1 1 1 2 2 1 1 1 1 1 1 1 0 0 0 0 0 0 1 1 1 1 1 0 0 0 0 1 1 1 1 1 1 1 1 0 0
6 5 5 4 3 2 1 1 1 2 2 1 1 1 1 1 1 1 1 1 1 1 1 0 0 0 1 1 1 0 0 0 0 0 1 1 1 1 1 1 1 0 0
7 6 5 5 4 3 2 1 1 2 2 1 1 1 1 1 1 1 1 1 1 1 1 1 1 0 0 0 0 0 0 0 0 0 1 1 1 1 1 1 0 0 0
Wind_Speed
2 3 2 2 2 2 3 2 2 2 2 1 1 1 1 1 3 5 6 12 12 11 10 9 9 8 8 8 8 7 7 7 6 6 6 6 6 6 6 5 5 5 4
2 2 2 1 1 1 2 2 2 2 1 1 1 1 1 1 2 4 7 8 11 11 10 10 9 9 9 9 9 8 8 7 7 7 7 6 6 6 6 6 5 5 5
3 2 2 1 1 1 2 1 1 1 1 2 1 1 1 1 2 3 5 6 7 10 11 10 10 10 10 10 10 9 9 8 8 7 7 7 7 6 6 6 6 5 5
2 2 2 2 2 1 2 1 1 1 1 1 1 1 1 1 2 2 3 4 5 7 9 12 11 11 11 11 11 11 10 10 9 9 9 9 8 8 7 7 7 6 6
3 2 1 2 2 1 2 2 2 1 1 1 1 2 2 2 2 4 4 4 4 5 6 10 13 12 12 12 11 11 11 11 11 11 11 10 10 9 9 8 7 7 7
3 2 2 3 3 2 2 1 1 1 1 1 3 2 1 2 3 3 4 3 4 5 6 6 7 8 12 12 12 12 12 12 11 12 12 12 11 10 9 9 9 8 8
3 3 2 2 2 2 2 2 2 3 2 2 1 1 2 3 3 3 2 2 3 4 4 5 6 5 6 11 12 12 13 13 12 12 12 12 11 10 10 10 10 9 9
3 4 3 2 2 1 2 2 2 2 2 2 1 1 1 1 2 3 2 3 2 2 3 5 5 5 4 4 6 11 11 11 11 11 11 10 11 10 10 10 9 9 10
3 2 3 3 2 2 2 3 3 3 3 2 2 2 1 2 1 1 2 2 2 2 2 1 3 4 4 3 4 8 11 10 11 11 10 9 9 9 9 9 10 9 9
3 3 3 2 2 2 2 4 3 3 3 3 2 2 2 1 1 1 1 0 1 2 1 1 1 2 3 3 3 6 10 10 10 10 9 9 8 9 9 9 9 9 8
3 3 3 2 2 2 2 3 2 2 2 3 2 2 2 2 3 2 2 1 1 0 0 0 0 0 1 2 2 3 6 8 9 9 8 8 8 8 8 8 8 8 8
2 2 3 2 2 2 2 2 2 3 3 3 2 2 2 2 2 2 3 2 2 1 1 0 1 1 1 1 2 4 5 5 6 7 8 8 8 8 8 8 7 7 8
2 2 2 2 2 2 2 2 2 3 3 3 3 3 2 3 2 2 2 2 2 2 1 1 1 1 1 1 2 4 5 6 6 6 6 7 7 7 7 7 7 6 6
1 2 2 2 2 2 2 2 2 3 2 3 4 3 2 2 2 2 2 2 2 2 1 1 0 1 0 2 2 3 3 6 5 5 5 6 6 6 6 6 6 5 5
1 2 2 2 2 2 2 2 2 2 1 2 2 2 2 2 2 2 2 3 3 2 2 1 0 1 1 2 3 2 3 5 5 5 5 5 5 6 6 5 5 4 4
0 0 1 2 2 2 2 2 2 2 2 2 2 2 2 2 2 2 2 2 2 2 1 1 0 1 1 2 3 3 3 5 4 4 4 5 5 5 5 5 5 4 5
0 1 1 1 1 1 1 2 2 2 1 1 2 1 1 1 1 2 1 1 0 1 2 1 0 1 1 1 2 1 1 2 2 4 5 5 5 5 5 5 4 4 4
0 0 1 1 1 1 1 1 1 1 1 1 1 1 1 1 1 2 1 1 1 1 2 2 1 1 0 1 1 1 1 2 2 5 6 6 6 5 5 4 4 4 4
1 0 0 0 0 0 0 0 1 1 0 0 0 0 1 1 1 1 1 1 1 0 1 2 1 1 1 1 1 1 1 1 1 4 6 6 5 5 4 4 3 3 4
1 1 1 1 1 1 1 1 0 1 0 1 1 1 1 2 1 1 1 1 1 0 1 2 2 1 1 1 1 1 1 0 1 2 3 4 5 5 4 4 4 4 4
2 2 1 1 1 2 1 1 1 0 0 0 1 1 2 2 3 2 1 1 1 0 1 2 2 1 1 1 1 1 1 1 1 1 2 2 2 2 2 3 3 4 3
2 2 2 1 1 2 4 4 3 1 1 1 1 1 1 2 2 2 3 3 2 1 1 1 1 2 2 1 1 2 2 2 1 1 2 2 2 2 2 2 3 4 4
2 2 2 2 3 4 5 5 4 2 1 1 1 1 1 2 2 2 2 1 2 2 0 2 2 2 2 1 1 2 2 2 2 2 2 2 2 2 2 3 5 5 5
2 2 2 3 3 3 4 4 4 1 1 1 1 1 1 2 3 2 1 2 2 2 1 0 0 1 1 1 2 3 3 2 2 2 2 2 2 2 2 2 5 6 5
2 2 2 2 3 3 4 4 3 1 1 2 2 2 2 3 4 3 1 1 1 2 2 2 1 1 1 1 1 1 2 2 2 1 1 1 2 2 2 2 3 6 6
2 2 2 3 3 3 3 3 3 1 1 1 2 3 5 4 4 4 1 1 1 2 1 1 1 1 1 1 1 1 1 2 1 1 1 1 2 1 1 2 2 2 3
Wind_Direction
125 127 140 158 173 155 163 172 167 153 145 148 217 164 117 98 116 125 140 161 163 167 171 175 177 180 182 181 181 182 182 182 178 176 176 178 177 176 175 173 171 171 172
114 119 130 146 156 156 142 158 167 147 177 192 204 186 187 148 136 140 145 164 174 178 181 184 188 190 192 192 193 195 195 195 192 190 191 192 192 192 191 190 190 188 188
117 130 123 145 148 113 107 148 173 167 195 199 208 216 194 177 161 153 152 162 175 188 190 191 195 199 201 201 201 203 205 205 202 201 200 199 200 200 201 202 200 197 194
154 155 156 168 150 153 156 178 222 200 202 224 214 239 206 178 184 179 179 176 174 179 193 199 200 202 206 209 209 210 210 209 207 208 208 207 208 207 205 208 208 204 199
174 190 180 153 169 189 191 210 186 213 222 225 229 224 216 196 198 207 195 190 177 171 177 194 201 205 208 212 215 216 217 215 213 213 214 214 214 213 211 211 210 206 203
185 198 196 176 195 199 206 205 197 223 238 237 254 247 222 207 198 215 213 195 180 185 187 181 191 208 212 215 217 220 221 219 217 216 218 218 216 214 212 210 209 207 206
191 201 227 182 200 203 206 207 203 223 226 222 234 279 258 227 211 199 205 195 194 191 182 178 182 192 201 215 220 221 222 221 219 219 219 218 217 214 211 211 211 210 208
195 202 199 207 199 206 218 230 220 229 244 227 213 232 262 265 252 219 187 186 191 184 181 190 182 182 189 184 203 214 217 219 220 219 217 218 218 215 213 213 209 209 209
204 209 194 209 204 193 203 228 225 220 234 241 216 199 214 231 271 286 210 185 175 186 191 178 182 179 183 169 180 206 211 214 217 219 217 214 209 205 204 207 209 208 209
203 197 199 216 217 224 208 226 210 225 227 248 248 230 225 217 192 249 285 194 188 191 200 221 201 152 172 172 173 173 192 202 207 209 206 205 200 199 202 205 206 207 208
199 204 191 207 216 234 225 236 228 232 235 244 247 250 247 235 214 205 233 240 316 328 248 222 166 175 194 167 169 160 171 191 199 200 199 197 193 192 194 196 203 207 207
198 203 201 200 214 232 232 229 226 230 241 257 257 255 248 238 228 216 222 220 233 261 281 234 205 195 200 150 157 139 148 174 187 191 192 192 190 191 194 198 204 209 212
193 197 204 189 215 232 233 227 222 238 236 245 247 252 257 251 245 231 209 227 232 232 222 225 239 166 207 125 124 135 148 161 169 178 185 187 187 190 192 195 198 203 208
192 176 188 191 208 227 240 225 232 235 236 245 254 254 256 260 253 231 212 204 225 237 212 208 77 81 91 102 110 136 142 150 154 165 176 183 182 184 187 190 192 195 198
215 170 181 187 211 225 245 235 239 243 241 247 261 264 264 271 265 252 237 217 208 228 241 207 165 75 72 83 115 120 113 121 140 156 172 179 178 181 182 182 183 184 188
96 147 189 211 217 222 231 237 243 244 240 246 247 259 268 279 288 279 248 237 221 207 227 213 149 127 96 94 109 108 107 112 123 149 164 165 167 169 169 168 172 177 183
154 179 229 242 235 240 236 233 242 250 244 267 279 285 308 318 321 311 289 272 220 178 199 228 102 100 87 99 101 95 105 110 116 128 139 145 145 149 154 161 168 176 181
183 220 225 245 252 254 263 282 289 277 238 268 311 344 327 321 322 325 325 322 236 198 172 178 174 197 174 150 143 146 122 113 109 112 120 120 123 131 139 145 158 169 175
154 261 176 167 197 138 52 34 285 294 314 293 320 334 334 346 336 350 328 316 300 209 155 161 182 181 186 195 171 154 119 119 128 120 124 122 120 123 128 141 156 164 168
147 108 76 93 102 86 56 44 1 320 28 44 47 44 43 39 5 337 307 312 326 344 141 142 163 175 196 213 191 181 170 215 201 150 129 134 132 136 138 141 148 157 166
148 131 113 92 81 75 43 26 355 23 22 47 66 69 69 65 53 30 3 6 353 283 172 160 175 174 186 194 208 218 193 217 269 177 154 150 148 148 160 161 157 152 156
122 121 121 102 76 59 50 42 17 358 55 77 61 64 105 106 79 61 56 38 16 291 214 193 203 200 219 215 208 210 202 209 221 198 174 184 166 165 170 166 161 162 169
137 134 122 101 87 73 58 47 25 1 22 98 98 60 34 61 79 61 54 30 13 20 172 218 211 210 216 211 217 224 227 226 231 208 192 194 180 175 173 163 164 171 179
137 136 127 119 108 84 63 47 18 22 30 59 71 78 67 61 44 27 32 43 34 23 353 297 144 253 208 226 231 223 221 231 241 219 187 204 193 186 168 160 171 174 186
141 140 137 130 115 94 67 48 21 70 68 63 61 60 65 67 41 35 50 42 43 49 52 65 108 170 186 208 240 239 223 220 233 226 208 201 196 183 170 171 181 184 193
157 146 140 136 132 112 90 61 28 42 74 72 83 84 71 57 46 29 39 37 43 23 12 28 71 143 187 207 226 247 250 246 230 211 212 226 210 186 187 172 167 178 199